User: anonymous
Location: Unspecified
(0.0000°N, 0.0000°E)
Time: 10:04:09
(UTC+02:00)
Language:

ARIANE 5 R/B - Orbit

View from above orbital plane
View from above orbital plane
View from above satellite
View from above satellite

Ground track
Ground track

The orbit data is extracted from the following two-line orbital elements,

1 27387U 02009B   14202.85303691 -.00000016  00000-0  89784-5 0  2196
2 27387 098.3154 164.4116 0033543 066.9392 354.8096 14.35723095649244
Epoch (UTC): 21 July 2014 20:28:22
Eccentricity: 0.0033543
inclination: 98.3154°
perigee height: 748 km
apogee height: 796 km
right ascension of ascending node: 164.4116°
argument of perigee: 66.9392°
revolutions per day: 14.35723095
mean anomaly at epoch: 354.8096°
orbit number at epoch: 64924

The dashed part of the orbit path shows where the satellite is in the earth's shadow,  

DLR